星链-3583 (STARLINK-3583 )

导读 | 豆包AI

STARLINK-3583是美国太空探索技术公司SpaceX发射的星链(Starlink)卫星,于美国东部时间2022年3月3日搭载猎鹰9号火箭成功入轨,属于星链卫星互联网项目的组成部分。作为低地球轨道通信卫星,它与数千颗同系列卫星共同组网,旨在为全球偏远及网络覆盖不足区域提供高速、低延迟的宽带互联网接入服务,是SpaceX构建全球卫星星座计划的重要一环。

基本信息
目录编号:
51876
目录名称:
STARLINK-3583
国际标识:
2022-022AA
轨道中心:
EARTH
卫星名称:
星链-3583
卫星全名:
星链-3583 (STARLINK-3583 )
卫星状态:
在轨 (已飞行1472 天)
发射日期:
2022-03-03 UTC
国别 :
美国 (US)
星等 :
--
轨道信息
数据来源 国际轨道数据
星历时间: 2026-03-14T09:04:59+0800
20小时前
查看轨道信息
半长轴: 6917.878km
偏心率: 0.0001152
轨道倾角: 53.218°
近地点辐角 89.102°
升交点赤经 349.567°
平近点角 271.010°
近地点: 538.944km
远地点: 540.538km
周期: 95.437分钟
每日圈数: 15.08841
详细信息
固有亮度:
5
最大亮度:
2.5
卫星平台:
Starlink v1.5
覆盖范围:
全球
运营商:
太空探索技术公司
运营商所在国:
美国
制造商(研发单位):
太空探索技术公司
制造商所在国:
美国
使用方式:
暂无
卫星简介
星链(Starlink)计划是由太空探索技术公司(SpaceX)提出的一个巨型低轨卫星互联网星座项目,计划在2019年至2024年间在太空搭建由约1.2万颗卫星组成的“星链”网络,其中1584颗将部署在地球上空550千米处的近地轨道,并从2020年开始工作。该卫星仍在工作。
2D轨道图
3D轨道图
轨道高度分析图
轨道倾角分析图
轨道综合分析图
查看轨道综合分析图